KQ4KX Weather Reports


Display with metric or nautical units.
time (UTC)temp
F
wind
direction
speed
MPH
gust
MPH
rain 1hr
in
rain 24hr
in
rain mn
in
humidity
%
barometer
mb
20260901230033 83 42 1.0 2.0 0.00 0.00 0.00 83 1015.7
20260901225503 83 54 2.0 4.0 0.00 0.00 0.00 83 1015.7
20260901225003 83 54 2.0 4.0 0.00 0.00 0.00 83 1015.6
20260901224808 84 46 2.0 4.0 0.00 0.00 0.00 84 1015.7
20260901224503 84 46 2.0 4.0 0.00 0.00 0.00 84 1015.7
20260901224003 84 44 2.0 4.0 0.00 0.00 0.00 86 1015.7
20260901223433 84 43 1.0 3.0 0.00 0.00 0.00 84 1015.7
20260901222933 85 35 1.0 3.0 0.00 0.00 0.00 84 1015.6
20260901222403 85 35 1.0 3.0 0.00 0.00 0.00 84 1015.7
20260901222138 85 39 1.0 3.0 0.00 0.00 0.00 83 1015.5
20260901221833 85 39 1.0 3.0 0.00 0.00 0.00 83 1015.5
20260901221333 85 44 2.0 3.0 0.00 0.00 0.00 83 1015.4
20260901220552 85 49 2.0 6.0 0.00 0.00 0.00 82 1015.4
20260901220233 85 49 2.0 6.0 0.00 0.00 0.00 82 1015.4
20260901214133 86 28 2.0 4.0 0.00 0.00 0.00 79 1015.4
20260901213820 86 40 2.0 5.0 0.00 0.00 0.00 79 1015.4
20260901213603 86 40 2.0 5.0 0.00 0.00 0.00 79 1015.4
20260901213033 86 68 3.0 9.0 0.00 0.01 0.00 79 1015.4
20260901212503 87 75 3.0 9.0 0.00 0.01 0.00 78 1015.3
20260901212003 87 67 3.0 8.0 0.00 0.01 0.00 80 1015.2
20260901211749 86 67 3.0 7.0 0.00 0.02 0.00 79 1015.2
20260901211503 86 67 3.0 7.0 0.00 0.02 0.00 79 1015.2
20260901211209 86 70 3.0 7.0 0.00 0.03 0.00 80 1015.2
20260901211003 86 70 3.0 7.0 0.00 0.03 0.00 80 1015.2
20260901210433 86 75 5.0 11.0 0.00 0.05 0.00 79 1015.4
20260901205333 88 61 4.0 8.0 0.00 0.07 0.00 76 1015.1
20260901203453 87 81 5.0 15.0 0.00 0.08 0.00 79 1015.1
20260901203233 87 81 5.0 15.0 0.00 0.08 0.00 79 1015.1
20260901202541 88 64 4.0 7.0 0.00 0.09 0.00 78 1015.3
20260901202233 88 64 4.0 7.0 0.00 0.09 0.00 78 1015.3
20260901201941 87 67 4.0 10.0 0.00 0.10 0.00 77 1015.4
20260901201733 87 67 4.0 10.0 0.00 0.10 0.00 77 1015.4
20260901200816 87 53 3.0 6.0 0.00 0.12 0.00 77 1015.5
20260901200633 87 53 3.0 6.0 0.00 0.12 0.00 77 1015.5
20260901200411 87 66 3.0 7.0 0.00 0.13 0.00 80 1015.5
20260901195749 87 74 4.0 9.0 0.00 0.15 0.00 83 1015.5
20260901195603 87 74 4.0 9.0 0.00 0.15 0.00 83 1015.5
20260901193623 85 70 1.0 8.0 0.00 0.15 0.00 84 1015.7
20260901193403 85 70 1.0 8.0 0.00 0.15 0.00 84 1015.7
20260901193111 85 55 1.0 3.0 0.00 0.15 0.00 83 1015.6
20260901192903 85 55 1.0 3.0 0.00 0.15 0.00 83 1015.6
20260901192333 84 83 3.0 8.0 0.00 0.15 0.00 84 1015.8
20260901191833 84 84 3.0 8.0 0.00 0.15 0.00 84 1015.8
20260901191333 85 81 3.0 7.0 0.00 0.15 0.00 84 1015.9
20260901184538 85 327 1.0 3.0 0.00 0.15 0.00 84 1016.2
20260901184233 85 327 1.0 3.0 0.00 0.15 0.00 84 1016.2
20260901183733 86 327 1.0 3.0 0.00 0.15 0.00 83 1016.2
20260901181803 86 18 1.0 4.0 0.00 0.15 0.00 84 1016.6
20260901181603 86 18 1.0 4.0 0.00 0.15 0.00 84 1016.6
20260901181226 86 16 2.0 4.0 0.00 0.15 0.00 85 1016.7
20260901181033 86 16 2.0 4.0 0.00 0.15 0.00 85 1016.7
20260901180744 86 350 2.0 3.0 0.00 0.15 0.00 86 1016.7
20260901180533 86 350 2.0 3.0 0.00 0.15 0.00 86 1016.7
20260901180208 85 348 2.0 3.0 0.00 0.15 0.00 84 1016.8
20260901180003 85 348 2.0 3.0 0.00 0.15 0.00 84 1016.8
20260901175503 85 349 1.0 3.0 0.00 0.15 0.00 82 1016.9
20260901175310 85 330 1.0 3.0 0.00 0.15 0.00 82 1016.9
20260901175003 85 330 1.0 3.0 0.00 0.15 0.00 82 1016.9
20260901174809 84 318 1.0 3.0 0.00 0.15 0.00 81 1016.8
20260901174503 84 318 1.0 3.0 0.00 0.15 0.00 81 1016.8
20260901174004 84 320 1.0 3.0 0.00 0.15 0.00 82 1016.9
20260901172933 84 7 2.0 3.0 0.00 0.15 0.00 82 1017.2
20260901172710 84 5 2.0 4.0 0.00 0.15 0.00 83 1017.3
20260901172433 84 5 2.0 4.0 0.00 0.15 0.00 83 1017.3
20260901171933 84 357 2.0 4.0 0.00 0.15 0.00 83 1017.3
20260901171701 84 352 2.0 4.0 0.00 0.15 0.00 86 1017.4
20260901171433 84 352 2.0 4.0 0.00 0.15 0.00 86 1017.4
20260901171208 84 359 2.0 4.0 0.00 0.15 0.00 86 1017.4
20260901170903 84 359 2.0 4.0 0.00 0.15 0.00 86 1017.4
20260901170333 84 25 3.0 4.0 0.00 0.15 0.00 85 1017.6
20260901170028 85 38 2.0 4.0 0.00 0.15 0.00 85 1017.5
20260901165833 85 38 2.0 4.0 0.00 0.15 0.00 85 1017.5
20260901165333 85 53 2.0 7.0 0.00 0.15 0.00 85 1017.6
20260901164833 85 60 2.0 7.0 0.00 0.15 0.00 84 1017.7
20260901163233 85 81 5.0 7.0 0.00 0.15 0.00 88 1017.7
20260901161632 85 80 5.0 13.0 0.00 0.15 0.00 87 1017.6
20260901160133 87 75 2.0 4.0 0.00 0.15 0.00 79 1017.6
20260901154102 89 64 1.0 3.0 0.00 0.15 0.00 79 1017.6
20260901153602 88 85 2.0 4.0 0.00 0.15 0.00 80 1017.6
20260901153302 88 92 2.0 4.0 0.00 0.15 0.00 79 1017.7
20260901153033 88 92 2.0 4.0 0.00 0.15 0.00 79 1017.7
20260901152502 88 74 1.0 4.0 0.00 0.15 0.00 81 1017.8
20260901152002 88 325 1.0 2.0 0.00 0.15 0.00 81 1017.8
20260901151747 87 346 1.0 3.0 0.00 0.15 0.00 80 1017.7
20260901151432 87 346 1.0 3.0 0.00 0.15 0.00 80 1017.7
20260901151138 87 9 2.0 4.0 0.00 0.15 0.00 82 1017.7
20260901150902 87 9 2.0 4.0 0.00 0.15 0.00 82 1017.7
20260901150402 87 31 2.0 4.0 0.00 0.15 0.00 85 1017.6
20260901145902 87 35 2.0 4.0 0.00 0.15 0.00 84 1017.7
20260901145754 86 56 2.0 4.0 0.00 0.15 0.00 86 1017.7
20260901145403 86 56 2.0 4.0 0.00 0.15 0.00 86 1017.7
20260901145139 86 60 1.0 3.0 0.00 0.15 0.00 87 1017.7
20260901144833 86 60 1.0 3.0 0.00 0.15 0.00 87 1017.7
20260901144332 85 43 1.0 3.0 0.00 0.15 0.00 88 1017.7
20260901143803 84 67 1.0 3.0 0.00 0.15 0.00 89 1017.7
20260901142732 83 46 1.0 3.0 0.00 0.15 0.00 94 1017.5
20260901142202 82 55 1.0 2.0 0.00 0.15 0.00 95 1017.5
20260901141132 81 77 1.0 2.0 0.00 0.15 0.00 95 1017.6
20260901140602 81 80 1.0 3.0 0.00 0.15 0.00 95 1017.5
20260901135032 80 88 2.0 4.0 0.00 0.15 0.00 97 1017.4
20260901134808 80 93 2.0 4.0 0.00 0.15 0.00 98 1017.3
20260901134533 80 93 2.0 4.0 0.00 0.15 0.00 98 1017.3
20260901134002 80 91 2.0 4.0 0.00 0.15 0.00 98 1017.4
20260901133432 80 90 2.0 3.0 0.00 0.15 0.00 99 1017.3
20260901132932 80 84 2.0 3.0 0.00 0.15 0.00 99 1017.1
20260901132402 79 75 1.0 3.0 0.00 0.15 0.00 99 1017.3
20260901131832 79 86 2.0 4.0 0.00 0.15 0.00 100 1017.1
20260901130233 79 63 1.0 3.0 0.00 0.15 0.00 100 1017.1
20260901125703 78 62 1.0 2.0 0.00 0.15 0.00 100 1017.1
20260901124103 77 37 1.0 2.0 0.00 0.15 0.00 100 1017.0
20260901123804 77 37 1.0 1.0 0.00 0.15 0.00 100 1017.0
20260901123602 77 37 1.0 1.0 0.00 0.15 0.00 100 1017.0
20260901122532 77 37 0.0 1.0 0.00 0.15 0.00 100 1017.0
20260901121718 77 37 0.0 2.0 0.00 0.15 0.00 100 1016.9
20260901121502 77 37 0.0 2.0 0.00 0.15 0.00 100 1016.9
20260901120708 77 0 0.0 0.0 0.00 0.15 0.00 100 1016.8
20260901120432 77 0 0.0 0.0 0.00 0.15 0.00 100 1016.8
20260901115902 77 0 0.0 0.0 0.00 0.15 0.00 100 1016.9
20260901115708 77 37 0.0 1.0 0.00 0.15 0.00 100 1016.8
20260901115402 77 37 0.0 1.0 0.00 0.15 0.00 100 1016.8
20260901115214 77 37 0.0 1.0 0.00 0.15 0.00 100 1016.8
20260901114902 77 37 0.0 1.0 0.00 0.15 0.00 100 1016.8
20260901114333 77 37 0.0 1.0 0.00 0.15 0.00 100 1016.7
20260901113803 77 37 0.0 1.0 0.00 0.15 0.00 100 1016.5
20260901111703 76 37 0.0 1.0 0.00 0.15 0.00 100 1016.5
20260901110728 76 37 0.0 2.0 0.00 0.15 0.00 100 1016.4
20260901110603 76 37 0.0 2.0 0.00 0.15 0.00 100 1016.4
20260901105603 77 37 1.0 2.0 0.00 0.15 0.00 100 1016.5
20260901104534 77 37 1.0 1.0 0.00 0.15 0.00 100 1016.3
20260901104256 77 37 1.0 2.0 0.00 0.15 0.00 100 1016.2
20260901104003 77 37 1.0 2.0 0.00 0.15 0.00 100 1016.2
20260901103502 77 37 1.0 2.0 0.00 0.15 0.00 100 1016.1
20260901103325 77 37 1.0 2.0 0.00 0.15 0.00 100 1016.2
20260901103003 77 37 1.0 2.0 0.00 0.15 0.00 100 1016.2
20260901102432 77 37 1.0 2.0 0.00 0.15 0.00 100 1016.2
20260901101933 77 37 0.0 1.0 0.00 0.15 0.00 100 1016.1
20260901101344 77 37 1.0 2.0 0.00 0.15 0.00 100 1016.0
20260901100932 77 37 1.0 2.0 0.00 0.15 0.00 100 1016.0
20260901100432 77 37 1.0 2.0 0.00 0.15 0.00 100 1016.0
20260901095902 77 37 0.0 1.0 0.00 0.15 0.00 100 1016.0
20260901095402 77 37 0.0 1.0 0.00 0.15 0.00 100 1015.9
20260901094902 77 37 1.0 1.0 0.00 0.15 0.00 100 1015.9
20260901094206 77 37 0.0 1.0 0.00 0.15 0.00 100 1015.6
20260901093902 77 37 0.0 1.0 0.00 0.15 0.00 100 1015.6
20260901093635 77 37 0.0 1.0 0.00 0.15 0.00 100 1015.7
20260901093402 77 37 0.0 1.0 0.00 0.15 0.00 100 1015.7
20260901093129 77 37 0.0 1.0 0.00 0.15 0.00 100 1015.6
20260901092833 77 37 0.0 1.0 0.00 0.15 0.00 100 1015.6
20260901092559 77 0 0.0 0.0 0.00 0.15 0.00 100 1015.6
20260901092333 77 0 0.0 0.0 0.00 0.15 0.00 100 1015.6
20260901092136 77 0 0.0 0.0 0.00 0.15 0.00 100 1015.6
20260901091833 77 0 0.0 0.0 0.00 0.15 0.00 100 1015.6
20260901091033 77 37 0.0 1.0 0.00 0.15 0.00 100 1015.5
20260901090732 77 37 0.0 1.0 0.00 0.15 0.00 100 1015.5
20260901084603 77 37 0.0 2.0 0.00 0.15 0.00 100 1015.5
20260901084325 77 37 0.0 2.0 0.00 0.15 0.00 100 1015.4
20260901084032 77 37 0.0 2.0 0.00 0.15 0.00 100 1015.4
20260901083502 77 37 0.0 2.0 0.00 0.15 0.00 100 1015.4
20260901083004 77 37 1.0 2.0 0.00 0.15 0.00 100 1015.4
20260901082503 77 37 1.0 2.0 0.00 0.15 0.00 100 1015.3
20260901082141 77 37 1.0 2.0 0.00 0.15 0.00 100 1015.3
20260901081932 77 37 1.0 2.0 0.00 0.15 0.00 100 1015.3
20260901081402 77 37 1.0 2.0 0.00 0.15 0.00 100 1015.4
20260901081131 77 37 1.0 2.0 0.00 0.15 0.00 100 1015.4
20260901080903 77 37 1.0 2.0 0.00 0.15 0.00 100 1015.4
20260901080708 77 37 0.0 2.0 0.00 0.15 0.00 100 1015.5
20260901080403 77 37 0.0 2.0 0.00 0.15 0.00 100 1015.5
20260901075832 77 37 0.0 2.0 0.00 0.15 0.00 100 1015.5
20260901075307 77 37 1.0 2.0 0.00 0.15 0.00 100 1015.5
20260901075033 77 37 1.0 2.0 0.00 0.15 0.00 100 1015.5
20260901074802 77 37 1.0 2.0 0.00 0.15 0.00 100 1015.5
20260901074302 77 37 0.0 2.0 0.00 0.15 0.00 100 1015.4
20260901071603 77 31 1.0 2.0 0.00 0.15 0.00 100 1015.8
20260901071311 77 13 1.0 2.0 0.00 0.15 0.00 100 1015.7
20260901071032 77 13 1.0 2.0 0.00 0.15 0.00 100 1015.7
20260901070532 77 6 1.0 2.0 0.00 0.15 0.00 100 1015.9
20260901070003 77 10 1.0 2.0 0.00 0.15 0.00 100 1015.9
20260901065503 77 18 0.0 2.0 0.00 0.15 0.00 99 1016.0
20260901064932 77 18 0.0 1.0 0.00 0.15 0.00 99 1016.1
20260901063332 77 26 1.0 2.0 0.00 0.15 0.00 99 1016.5
20260901062142 77 4 1.0 2.0 0.00 0.15 0.00 100 1016.7
20260901061732 77 4 1.0 2.0 0.00 0.15 0.00 100 1016.7
20260901061542 77 350 1.0 2.0 0.00 0.15 0.00 100 1016.9
20260901061233 77 350 1.0 2.0 0.00 0.15 0.00 100 1016.9
20260901060425 77 322 0.0 2.0 0.00 0.15 0.00 100 1017.2
20260901060132 77 322 0.0 2.0 0.00 0.15 0.00 100 1017.2
20260901054329 77 317 1.0 1.0 0.00 0.15 0.00 99 1017.3
20260901054102 77 317 1.0 1.0 0.00 0.15 0.00 99 1017.3
20260901053750 77 317 1.0 1.0 0.00 0.15 0.00 99 1017.2
20260901053532 77 317 1.0 1.0 0.00 0.15 0.00 99 1017.2
20260901053213 77 317 1.0 1.0 0.00 0.15 0.00 99 1017.3
20260901053002 77 317 1.0 1.0 0.00 0.15 0.00 99 1017.3
20260901052432 77 317 1.0 1.0 0.00 0.15 0.00 99 1017.5
20260901052154 77 317 0.0 1.0 0.00 0.15 0.00 99 1017.5
20260901051902 77 317 0.0 1.0 0.00 0.15 0.00 99 1017.5
20260901051645 77 317 0.0 1.0 0.00 0.15 0.00 99 1017.5
20260901051403 77 317 0.0 1.0 0.00 0.15 0.00 99 1017.5
20260901050832 77 317 0.0 1.0 0.00 0.15 0.00 99 1017.5
20260901045803 77 317 1.0 1.0 0.00 0.15 0.00 99 1017.6
20260901044733 77 317 1.0 1.0 0.00 0.15 0.00 99 1017.7
20260901044202 77 317 1.0 2.0 0.00 0.15 0.00 99 1017.7
20260901043104 78 317 1.0 2.0 0.00 0.15 0.00 99 1017.7
20260901042605 78 317 1.0 2.0 0.00 0.15 0.00 99 1017.7
20260901042104 78 316 1.0 2.0 0.00 0.15 0.00 99 1017.7
20260901041034 78 74 0.0 2.0 0.00 0.15 0.00 99 1017.8
20260901040502 78 102 0.0 1.0 0.00 0.15 0.00 99 1017.8
20260901040002 78 102 0.0 1.0 0.00 0.15 0.00 99 1017.8
20260901035433 78 102 1.0 2.0 0.00 0.15 0.15 99 1017.9
20260901034403 78 102 0.0 2.0 0.00 0.15 0.15 99 1017.7
20260901033904 78 102 0.0 1.0 0.00 0.15 0.15 99 1017.7
20260901033334 78 102 0.0 1.0 0.00 0.15 0.15 99 1017.8
20260901033130 78 102 0.0 1.0 0.00 0.15 0.15 99 1017.8
20260901032833 78 102 0.0 1.0 0.00 0.15 0.15 99 1017.8
20260901032334 78 0 0.0 0.0 0.00 0.15 0.15 98 1017.8
20260901031832 78 102 0.0 1.0 0.00 0.15 0.15 98 1017.9
20260901031302 78 102 0.0 1.0 0.00 0.15 0.15 98 1017.8
20260901030804 78 102 1.0 1.0 0.00 0.15 0.15 98 1017.9
20260901025733 78 102 1.0 1.0 0.00 0.15 0.15 98 1018.1
20260901025233 78 102 0.0 1.0 0.00 0.15 0.15 98 1018.0
20260901024732 78 0 0.0 0.0 0.00 0.15 0.15 98 1017.9
20260901024234 78 0 0.0 0.0 0.00 0.15 0.15 98 1017.8
20260901023732 78 0 0.0 0.0 0.00 0.15 0.15 98 1017.8
20260901022203 79 102 0.0 2.0 0.00 0.15 0.15 97 1017.5
20260901020604 79 81 1.0 3.0 0.00 0.15 0.15 97 1017.3
20260901020104 79 72 1.0 3.0 0.00 0.15 0.15 97 1017.2
20260901015815 79 77 1.0 2.0 0.00 0.15 0.15 97 1017.2
20260901015604 79 77 1.0 2.0 0.00 0.15 0.15 97 1017.2
20260901015334 79 81 1.0 4.0 0.00 0.15 0.15 97 1017.1
20260901015104 79 81 1.0 4.0 0.00 0.15 0.15 97 1017.1
20260901014603 79 92 2.0 6.0 0.00 0.15 0.15 97 1017.1
20260901013749 79 110 2.0 4.0 0.00 0.15 0.15 97 1017.0
20260901013534 79 110 2.0 4.0 0.00 0.15 0.15 97 1017.0
20260901013004 79 103 2.0 4.0 0.00 0.15 0.15 97 1017.1
20260901012504 79 95 3.0 6.0 0.00 0.15 0.15 97 1016.9
20260901011503 79 92 3.0 7.0 0.00 0.15 0.15 97 1016.7
20260901011004 79 88 2.0 7.0 0.00 0.15 0.15 97 1016.7
20260901010503 79 84 1.0 3.0 0.00 0.15 0.15 97 1016.6
20260901010002 79 75 1.0 3.0 0.00 0.15 0.15 97 1016.5
20260901005433 79 70 1.0 3.0 0.00 0.15 0.15 96 1016.6
20260901004903 79 73 1.0 3.0 0.00 0.15 0.15 96 1016.6
20260901004333 79 77 1.0 3.0 0.00 0.15 0.15 97 1016.6
20260901003802 79 75 1.0 3.0 0.00 0.15 0.15 97 1016.7
20260901002732 78 75 0.0 1.0 0.00 0.15 0.15 97 1016.9
20260901002203 78 75 0.0 1.0 0.00 0.15 0.15 96 1016.8
20260901002013 78 75 0.0 2.0 0.00 0.15 0.15 96 1016.7
20260901001708 78 75 0.0 2.0 0.00 0.15 0.15 96 1016.7
20260831235732 78 99 3.0 6.0 0.00 0.15 0.15 96 1016.7
20260831235534 78 99 3.0 6.0 0.00 0.15 0.15 96 1016.7
20260831234434 78 95 3.0 6.0 0.00 0.15 0.15 96 1016.5
20260831233333 78 83 2.0 6.0 0.00 0.15 0.15 96 1016.5
20260831232305 78 88 4.0 8.0 0.00 0.15 0.15 96 1016.4
20260831232125 78 95 3.0 8.0 0.00 0.15 0.15 96 1016.4
20260831231734 78 95 3.0 8.0 0.00 0.15 0.15 96 1016.4
20260831231234 78 105 3.0 7.0 0.00 0.15 0.15 97 1016.4